Wetbulb
52.63 49.09 44.46 47.97 40.07 35.24 32.24 36.10 37.28 39.99 39.71 40.64 42.27 42.09 40.71 41.35 41.90 37.98 45.63 46.49 47.34 50.99 52.58 54.42 59.61 60.63 60.96 61.57 64.03 65.11 68.22 70.32 71.73 71.86 72.38 72.31 72.02 72.10 71.94 72.88 73.47 73.21 73.70 74.07 73.59 73.59 73.19 72.81 72.51
50.33 48.75 47.03 40.84 34.28 28.92 30.37 34.22 36.23 37.39 39.55 39.24 40.62 40.11 39.38 38.20 41.84 41.43 41.88 46.04 46.88 50.20 52.47 53.93 59.15 59.15 59.62 59.77 60.27 62.54 64.52 67.11 69.45 71.29 71.46 72.05 72.30 72.34 72.08 72.42 73.29 73.69 74.07 73.75 73.65 73.19 73.00 72.22 72.03
45.68 45.76 40.91 36.69 29.31 28.31 30.44 34.68 36.57 38.29 39.24 38.60 36.92 38.95 36.55 36.67 39.20 39.67 42.40 45.02 46.18 47.18 49.69 53.39 57.27 57.90 58.53 58.82 59.06 59.77 61.72 63.51 65.84 68.68 70.44 71.29 71.64 72.53 73.07 72.76 72.91 73.11 73.35 73.33 73.73 73.43 72.96 71.86 71.60
40.39 39.50 35.56 31.57 29.79 33.33 32.54 34.68 35.75 36.12 38.11 38.91 36.47 34.31 35.84 38.00 39.00 39.69 43.17 43.84 44.36 45.92 47.28 51.24 55.46 56.43 56.96 57.39 58.12 58.59 59.14 60.62 62.44 64.86 68.31 69.93 71.05 71.80 72.38 72.34 73.05 72.47 72.46 72.96 73.20 73.22 73.08 71.82 71.36
37.89 34.23 28.64 25.85 28.19 32.49 32.65 35.47 34.09 33.31 33.51 34.81 36.01 34.03 34.46 37.98 39.97 40.57 41.38 43.57 43.18 44.17 45.58 47.04 53.02 53.76 54.63 55.32 56.31 57.29 57.96 58.66 59.62 61.42 63.90 67.15 68.98 70.38 71.06 72.00 72.01 72.47 71.98 72.40 72.95 72.76 71.76 71.46 71.19
33.47 32.17 26.08 25.22 27.84 32.22 31.52 33.10 34.10 33.04 32.63 33.57 34.13 33.28 33.99 38.59 38.09 39.11 40.87 40.57 42.94 43.05 44.53 45.57 48.67 50.96 52.11 53.08 53.87 55.31 56.14 56.96 57.69 59.51 60.58 62.59 65.04 67.14 69.61 70.95 71.77 71.80 72.12 71.29 71.89 71.20 71.38 70.74 70.83
31.96 28.60 25.69 24.55 28.24 30.01 33.16 33.99 31.42 32.18 31.58 32.98 35.98 31.46 32.98 35.88 38.19 39.37 38.96 39.51 41.35 42.36 42.64 43.00 43.89 45.63 48.19 49.89 51.38 52.35 53.55 54.57 55.70 56.47 58.51 59.65 59.61 64.12 66.91 68.42 70.59 71.30 71.67 72.03 71.73 70.70 70.48 70.29 70.24
32.43 30.62 26.68 26.94 28.67 29.91 32.69 33.19 35.04 33.04 32.26 36.58 37.11 31.83 30.12 34.75 38.62 39.37 39.05 38.73 38.98 40.28 40.91 41.02 41.45 42.08 42.59 43.77 48.89 50.08 51.20 52.17 53.11 53.52 54.46 57.19 58.74 61.14 64.89 65.10 67.06 70.04 70.52 70.33 70.38 69.44 69.14 69.45 69.48
34.65 27.73 25.20 27.93 29.04 29.20 32.16 31.05 34.34 36.04 34.25 34.29 35.72 33.14 35.60 38.33 39.23 37.05 35.73 36.37 36.63 39.15 38.88 39.00 39.39 40.26 41.26 42.47 45.10 46.86 48.36 49.94 50.49 50.53 51.85 53.36 56.77 58.28 60.16 64.03 64.97 68.03 68.91 69.51 69.29 69.23 68.55 67.31 66.99
31.51 26.20 29.46 30.77 29.53 29.29 31.41 30.81 30.94 30.99 31.97 32.13 32.26 34.61 36.31 36.63 35.67 34.48 33.97 33.15 34.25 34.81 36.19 37.02 37.27 38.38 39.71 41.83 42.17 42.75 44.81 45.43 46.18 47.22 48.37 50.63 51.92 57.11 58.54 59.40 61.64 63.48 65.26 67.36 68.63 68.16 66.98 64.53 67.08
32.54 29.34 32.42 32.62 33.54 33.43 32.03 30.21 31.61 29.36 29.35 32.43 32.35 33.54 34.85 34.00 33.22 33.32 33.07 33.14 32.79 33.74 34.91 36.28 36.77 36.97 37.20 38.73 40.78 41.56 43.21 44.17 45.37 45.56 46.57 48.00 50.44 53.38 57.58 61.25 65.02 64.89 61.70 65.31 67.24 67.23 66.94 66.52 66.82
29.02 33.28 33.94 35.37 35.65 33.77 31.01 31.97 30.97 31.84 31.64 35.32 35.57 34.32 34.08 33.26 32.75 32.26 31.68 32.57 32.78 32.50 33.69 35.16 35.92 36.17 36.62 37.45 38.74 40.42 40.78 43.22 44.29 45.35 45.58 45.43 46.39 49.04 52.33 57.41 62.57 64.81 65.24 64.88 66.08 66.59 66.59 66.47 66.37
30.67 32.01 35.07 34.68 34.10 33.05 33.87 31.75 31.27 31.09 33.85 34.17 34.47 34.92 33.42 32.88 32.28 31.96 32.65 32.64 32.32 32.16 32.70 33.50 34.72 35.00 36.44 36.59 36.68 37.94 39.38 41.30 42.87 44.46 45.29 45.58 45.77 47.69 50.41 53.12 57.77 62.86 65.32 65.06 65.35 65.99 66.05 66.05 65.80
33.61 33.79 33.54 34.69 33.66 33.82 31.92 29.81 30.91 31.03 30.77 31.62 32.99 32.15 33.17 32.62 31.94 31.07 31.02 30.64 30.96 32.67 32.50 33.62 34.04 34.78 35.89 35.20 35.27 36.46 38.13 40.05 42.35 43.35 44.98 46.65 47.21 48.32 49.32 50.73 53.68 57.76 64.77 65.32 65.47 65.64 65.88 65.02 64.52
34.19 29.78 31.99 32.70 33.25 31.91 31.69 29.25 27.61 31.66 31.93 30.87 30.73 31.38 32.75 32.95 32.25 30.10 30.17 29.80 30.45 30.92 32.66 32.84 33.81 35.04 34.40 34.68 35.45 36.54 37.91 39.76 41.00 41.84 43.43 44.58 47.03 48.80 49.19 49.76 50.64 54.34 62.52 61.60 64.69 65.04 64.49 63.01 62.11
30.26 28.54 25.14 31.67 32.22 31.63 30.85 23.80 30.48 30.61 30.52 29.87 29.60 28.91 30.47 31.32 31.69 30.20 29.84 29.80 29.99 30.65 30.92 32.33 33.84 33.39 34.02 34.69 34.83 35.61 37.22 37.97 39.97 41.21 42.51 44.32 46.88 48.36 49.16 49.88 50.13 53.00 61.35 59.43 59.80 62.60 61.89 61.12 60.81
27.65 22.91 24.43 28.19 32.23 29.82 28.60 24.58 30.04 30.87 29.73 28.59 28.62 28.35 28.62 28.89 27.87 28.51 28.78 28.19 28.90 29.40 30.06 30.43 31.59 32.31 33.12 34.03 34.82 35.10 36.15 38.26 39.78 40.75 41.88 44.04 46.03 48.37 49.06 49.79 50.17 51.70 56.68 60.74 59.66 60.10 60.04 59.51 59.71
24.66 23.67 25.28 23.64 27.90 28.05 25.93 25.38 30.13 31.48 29.21 28.86 27.93 27.17 27.27 27.39 26.79 28.51 28.84 29.11 28.62 27.93 28.84 29.53 30.68 31.54 32.22 33.06 33.88 34.11 35.62 38.07 39.88 40.24 40.84 42.38 44.42 46.02 48.59 49.25 49.99 51.24 54.07 60.01 58.95 59.08 59.27 58.87 57.12
27.10 24.45 23.23 24.33 28.88 25.50 24.93 24.72 27.88 30.01 29.39 28.65 26.86 26.81 26.25 24.76 25.45 26.50 27.92 27.33 26.54 27.34 27.26 28.28 29.05 30.15 31.02 31.23 32.27 33.16 32.71 34.98 38.59 38.88 40.14 41.35 42.60 44.65 47.33 48.39 48.32 50.59 50.36 55.11 59.35 58.81 58.37 54.90 51.78
27.34 23.59 22.88 25.85 27.78 25.59 23.38 23.55 28.33 26.35 26.79 27.58 27.63 25.36 24.10 23.17 21.72 23.40 25.11 24.87 25.48 25.46 26.24 27.32 28.66 29.55 30.58 31.10 33.35 32.08 34.13 35.20 37.52 38.91 39.83 41.44 43.30 45.95 47.64 47.91 47.75 50.68 52.33 52.84 57.73 59.14 57.35 53.92 53.31
25.76 24.31 22.76 22.65 24.68 24.14 21.93 19.32 19.81 25.77 26.05 26.06 26.29 25.27 23.63 21.64 19.94 21.28 23.13 22.60 23.48 23.78 24.69 26.92 28.35 29.44 30.21 30.93 31.28 33.48 33.49 33.47 35.23 38.74 40.47 44.98 46.28 44.56 46.10 46.39 48.50 49.39 52.42 52.49 54.44 57.67 57.60 52.89 53.69
22.30 27.34 25.40 23.88 17.24 14.31 21.28 11.42 20.19 23.69 24.74 25.06 25.03 23.06 20.56 19.34 21.15 21.73 22.25 21.07 21.30 23.46 24.59 26.14 28.05 28.36 30.00 29.43 29.56 28.81 29.43 29.96 32.54 35.66 39.10 42.46 44.93 42.44 42.14 42.90 43.29 46.39 47.39 50.38 51.58 53.63 56.60 55.32 53.11
24.44 27.15 23.86 23.35 15.07 11.20 17.38 7.21 18.45 21.42 21.94 23.61 24.71 21.68 19.89 20.78 20.13 20.05 19.28 22.83 22.43 23.49 23.20 24.28 25.60 27.04 28.12 28.54 28.57 28.02 28.71 31.02 32.23 34.22 36.64 41.63 42.30 40.15 39.20 38.90 39.96 42.07 43.96 44.77 46.10 47.75 50.55 55.88 54.88
28.23 26.19 24.14 22.03 18.79 5.02 12.88 13.66 17.81 17.19 18.07 20.32 19.86 20.50 22.15 21.31 21.43 20.77 21.00 22.56 21.51 22.34 22.28 22.67 23.82 24.93 27.31 27.71 27.22 27.11 28.05 28.48 29.84 31.76 35.11 39.36 38.28 37.68 35.97 36.81 36.93 37.43 39.40 40.51 41.98 43.38 46.18 48.55 52.13
25.57 20.79 7.95 6.40 2.67 8.02 17.46 14.34 19.38 19.36 20.27 19.50 18.92 19.79 17.64 19.71 19.35 18.94 19.02 19.67 20.74 20.42 21.30 22.37 23.41 23.90 25.80 25.94 26.31 26.42 28.15 28.28 28.42 31.35 34.09 35.47 33.45 33.89 32.50 33.56 34.22 34.75 36.15 36.91 38.68 40.12 40.37 40.19 43.15
23.90 18.23 11.37 3.15 3.27 7.88 19.01 8.98 18.67 17.81 13.71 9.84 12.95 11.37 19.25 19.02 19.36 18.74 19.18 18.37 19.04 20.74 21.46 21.82 22.45 23.27 23.69 24.24 24.56 25.77 27.14 27.40 28.20 30.18 31.82 32.81 32.06 31.15 31.76 31.31 31.80 31.88 32.92 34.46 34.98 34.70 34.24 34.23 34.68
23.14 19.37 21.53 6.75 4.74 5.67 9.45 16.72 23.62 21.80 17.27 14.19 12.64 20.48 18.17 17.32 16.97 16.54 18.01 17.32 18.08 18.38 20.32 21.15 22.23 22.07 22.90 23.64 23.80 25.03 26.00 25.78 26.13 27.89 29.81 29.84 29.91 30.89 28.98 28.78 28.79 29.40 30.04 30.92 31.41 31.57 31.00 31.63 31.97
23.87 25.06 15.38 10.93 2.16 0.50 8.46 9.66 14.55 16.16 13.99 15.00 15.12 16.24 16.01 16.61 16.82 16.97 16.62 16.87 18.36 18.52 19.22 20.63 20.48 17.55 18.63 22.81 23.38 24.60 24.57 24.53 24.71 26.48 26.51 26.54 27.23 27.85 27.56 27.28 27.44 27.70 28.26 28.83 29.24 28.88 29.48 29.43 29.46
19.88 17.79 19.19 16.29 11.22 2.15 6.03 10.45 14.09 14.80 10.85 13.75 16.72 17.54 12.91 12.59 12.84 13.68 14.73 15.36 13.26 13.77 13.46 15.03 15.93 15.05 18.15 20.34 21.33 21.63 22.72 23.67 24.06 24.54 24.92 24.85 25.12 25.23 24.98 25.26 25.49 26.00 26.84 28.09 28.00 28.24 28.84 28.39 28.20
22.20 13.39 15.17 9.99 6.21 3.47 9.09 13.69 9.13 9.19 5.84 8.93 15.11 18.35 12.57 13.73 11.94 11.63 12.74 9.95 9.27 9.68 11.43 13.03 14.45 12.16 19.04 19.34 21.74 21.98 22.97 23.45 22.85 23.05 23.87 24.86 24.46 25.19 24.89 25.00 24.87 25.04 25.38 25.88 25.50 24.98 25.65 25.63 25.24
MSLP
1014.18 1013.76 1013.77 1014.04 1015.39 1015.80 1015.26 1014.27 1013.40 1012.80 1012.70 1012.56 1012.45 1012.66 1013.55 1014.68 1015.49 1016.93 1017.02 1017.07 1016.80 1016.85 1016.45 1016.06 1015.53 1015.11 1014.74 1014.47 1014.07 1013.73 1013.35 1012.87 1012.45 1012.35 1012.40 1012.43 1012.53 1012.67 1012.67 1012.69 1012.67 1012.82 1012.99 1012.95 1013.23 1013.41 1013.82 1014.26 1014.38
1014.28 1013.79 1014.04 1014.92 1015.89 1016.20 1015.27 1014.19 1013.62 1013.15 1012.85 1012.81 1012.96 1013.45 1014.50 1015.95 1016.25 1017.09 1017.33 1017.24 1016.99 1016.80 1016.67 1016.25 1015.78 1015.37 1015.08 1014.82 1014.53 1014.24 1013.81 1013.41 1013.03 1012.56 1012.34 1012.39 1012.43 1012.61 1012.63 1012.80 1012.68 1012.85 1012.82 1012.93 1013.20 1013.48 1013.76 1014.08 1014.39
1014.24 1014.24 1015.03 1015.52 1016.03 1015.79 1015.00 1014.29 1013.77 1013.43 1013.16 1013.15 1013.82 1014.63 1016.01 1017.07 1017.35 1017.67 1017.87 1017.59 1017.20 1017.02 1016.91 1016.49 1016.15 1015.92 1015.59 1015.28 1014.93 1014.60 1014.23 1013.87 1013.59 1013.11 1012.73 1012.36 1012.34 1012.25 1012.49 1012.73 1012.71 1012.79 1012.87 1012.80 1012.97 1013.30 1013.72 1014.01 1014.27
1014.61 1015.10 1016.10 1016.02 1015.84 1014.99 1014.44 1014.18 1013.90 1013.80 1013.70 1013.75 1014.46 1016.14 1017.21 1017.88 1017.89 1018.15 1018.03 1017.61 1017.50 1017.54 1017.43 1017.03 1016.59 1016.35 1016.17 1015.88 1015.46 1015.07 1014.70 1014.28 1013.96 1013.58 1013.03 1012.67 1012.29 1012.27 1012.32 1012.58 1012.65 1012.72 1012.83 1012.80 1012.86 1013.10 1013.45 1013.83 1014.14
1015.22 1016.19 1016.86 1016.63 1015.67 1014.81 1014.56 1014.34 1014.20 1014.25 1014.52 1014.54 1014.86 1016.54 1017.67 1018.22 1018.27 1018.26 1018.18 1017.93 1017.89 1017.86 1017.67 1017.48 1017.12 1016.81 1016.54 1016.33 1016.01 1015.56 1015.19 1014.72 1014.24 1013.87 1013.39 1013.00 1012.70 1012.43 1012.30 1012.30 1012.51 1012.57 1012.70 1012.73 1012.77 1012.89 1013.21 1013.63 1014.08
1016.17 1016.79 1017.35 1016.78 1015.64 1015.10 1014.98 1014.78 1014.70 1014.78 1014.89 1015.05 1015.57 1016.72 1018.03 1018.35 1018.37 1018.33 1018.23 1018.22 1018.05 1017.96 1017.82 1017.66 1017.45 1017.22 1016.98 1016.69 1016.36 1016.06 1015.67 1015.11 1014.64 1014.12 1013.70 1013.42 1012.92 1012.57 1012.28 1012.13 1012.11 1012.23 1012.38 1012.57 1012.58 1012.61 1012.97 1013.38 1013.87
1016.45 1017.22 1016.91 1016.21 1015.47 1015.18 1014.98 1014.92 1015.25 1015.26 1015.23 1015.43 1015.83 1017.07 1018.19 1018.42 1018.45 1018.36 1018.44 1018.50 1018.33 1018.09 1017.80 1017.87 1017.79 1017.71 1017.48 1017.12 1016.72 1016.37 1016.00 1015.62 1015.01 1014.47 1013.89 1013.51 1013.10 1012.63 1012.41 1012.12 1011.81 1011.87 1012.05 1012.29 1012.43 1012.56 1012.87 1013.24 1013.58
1016.54 1017.15 1016.78 1015.90 1015.48 1015.17 1015.15 1015.29 1015.41 1015.40 1015.42 1015.56 1015.87 1017.07 1018.03 1018.09 1018.17 1018.20 1018.35 1018.52 1018.52 1018.36 1018.24 1018.27 1018.12 1017.94 1017.81 1017.55 1017.00 1016.65 1016.25 1015.78 1015.34 1014.84 1014.30 1013.72 1013.10 1012.68 1012.36 1011.95 1011.69 1011.50 1011.65 1011.81 1012.10 1012.35 1012.61 1013.07 1013.39
1016.26 1017.17 1016.99 1015.91 1015.55 1015.42 1015.56 1015.68 1015.65 1015.61 1015.83 1016.07 1016.54 1017.24 1017.85 1018.08 1018.32 1018.48 1018.62 1018.79 1018.72 1018.65 1018.63 1018.62 1018.54 1018.37 1018.05 1017.63 1017.18 1016.94 1016.39 1015.91 1015.51 1015.02 1014.58 1014.03 1013.30 1012.73 1012.33 1011.85 1011.57 1011.33 1011.16 1011.30 1011.51 1011.91 1012.30 1012.76 1013.11
1016.60 1017.20 1016.29 1015.77 1015.71 1015.85 1015.98 1016.17 1016.32 1016.31 1016.39 1016.72 1017.45 1017.99 1018.09 1018.17 1018.37 1018.67 1018.89 1019.01 1018.93 1018.88 1018.82 1018.79 1018.67 1018.58 1018.34 1017.90 1017.50 1017.02 1016.53 1016.09 1015.64 1015.19 1014.71 1014.24 1013.70 1012.88 1012.29 1011.77 1011.31 1011.09 1010.98 1010.79 1010.98 1011.41 1011.98 1012.45 1012.81
1016.56 1016.60 1016.05 1015.98 1015.96 1016.11 1016.37 1016.62 1016.60 1016.66 1016.75 1016.78 1017.04 1017.86 1018.25 1018.57 1018.79 1018.97 1019.17 1019.26 1019.40 1019.36 1019.11 1018.87 1018.70 1018.61 1018.47 1018.11 1017.79 1017.30 1016.71 1016.18 1015.60 1015.09 1014.68 1014.18 1013.67 1013.11 1012.31 1011.67 1011.06 1010.72 1010.70 1010.76 1010.58 1010.79 1011.64 1012.14 1012.40
1016.67 1016.25 1016.26 1016.09 1016.15 1016.39 1016.64 1016.70 1016.84 1016.75 1016.33 1016.40 1016.79 1017.24 1018.09 1018.59 1018.85 1018.97 1019.06 1019.23 1019.34 1019.38 1019.37 1019.17 1018.92 1018.59 1018.30 1018.24 1018.01 1017.60 1017.05 1016.32 1015.75 1015.12 1014.66 1014.25 1013.62 1013.17 1012.63 1011.80 1011.09 1010.52 1010.28 1010.36 1010.32 1010.35 1010.75 1011.35 1011.91
1016.70 1016.51 1016.33 1016.21 1016.40 1016.40 1016.53 1016.78 1017.04 1016.37 1016.34 1016.56 1017.10 1017.49 1017.87 1018.23 1018.46 1018.73 1018.94 1019.25 1019.38 1019.25 1019.13 1019.04 1018.86 1018.70 1018.38 1018.17 1018.03 1017.70 1017.13 1016.53 1015.84 1015.23 1014.58 1014.27 1013.70 1013.00 1012.50 1011.94 1011.18 1010.48 1009.87 1009.77 1010.06 1010.21 1010.44 1010.86 1011.33
1016.90 1016.86 1016.66 1016.35 1016.35 1016.44 1016.75 1017.05 1017.34 1016.15 1016.35 1016.91 1017.20 1017.49 1017.69 1017.96 1018.19 1018.65 1019.06 1019.30 1019.30 1019.22 1019.02 1018.74 1018.62 1018.41 1018.19 1018.05 1017.79 1017.47 1017.07 1016.40 1015.75 1015.13 1014.60 1014.10 1013.63 1012.94 1012.29 1011.76 1011.14 1010.54 1009.70 1009.03 1009.29 1009.49 1009.80 1010.31 1011.00
1017.06 1017.18 1016.65 1016.15 1016.33 1016.79 1017.04 1017.19 1016.63 1016.17 1016.72 1017.12 1017.36 1017.34 1017.47 1017.65 1018.00 1018.40 1018.80 1019.08 1019.29 1019.38 1019.25 1019.02 1018.62 1018.32 1018.26 1017.91 1017.46 1017.18 1016.66 1016.15 1015.59 1014.96 1014.48 1014.00 1013.46 1012.69 1012.07 1011.47 1011.02 1010.45 1009.66 1009.21 1008.91 1008.86 1009.22 1009.72 1010.59
1017.48 1017.67 1017.36 1016.40 1016.69 1017.11 1017.46 1016.95 1015.70 1016.08 1016.73 1017.03 1017.26 1017.52 1017.51 1017.67 1017.98 1018.40 1018.80 1019.11 1019.26 1019.19 1019.13 1019.07 1018.92 1018.65 1018.33 1017.83 1017.34 1016.94 1016.46 1016.01 1015.26 1014.74 1014.27 1013.83 1013.17 1012.44 1011.79 1011.12 1010.74 1010.19 1009.59 1009.26 1009.08 1008.36 1008.70 1008.64 1009.76
1017.82 1017.93 1017.74 1016.95 1016.90 1017.43 1017.84 1016.88 1016.05 1016.13 1016.74 1016.92 1017.13 1017.25 1017.59 1017.93 1018.45 1018.83 1019.09 1019.22 1019.34 1019.45 1019.48 1019.37 1019.16 1018.79 1018.41 1017.91 1017.26 1016.69 1016.08 1015.55 1014.71 1014.39 1014.07 1013.50 1012.90 1012.04 1011.43 1010.80 1010.35 1009.86 1009.60 1008.92 1008.74 1008.38 1008.48 1008.67 1009.13
1017.72 1018.00 1017.74 1017.62 1017.48 1017.82 1017.85 1016.91 1016.17 1016.32 1016.62 1016.62 1016.88 1017.20 1017.68 1018.14 1018.70 1019.07 1019.31 1019.39 1019.34 1019.42 1019.55 1019.52 1019.26 1018.87 1018.41 1017.78 1017.16 1016.63 1015.91 1015.04 1014.17 1013.93 1013.73 1013.26 1012.57 1011.81 1011.01 1010.39 1010.07 1009.87 1009.50 1009.16 1008.64 1008.62 1008.17 1008.84 1009.21
1017.48 1017.93 1018.17 1017.83 1018.07 1018.37 1017.80 1017.40 1016.02 1015.97 1016.05 1016.29 1016.77 1017.19 1017.62 1018.52 1019.01 1019.32 1019.38 1019.37 1019.41 1019.45 1019.39 1019.18 1018.97 1018.69 1018.44 1017.90 1017.26 1016.76 1016.29 1015.44 1014.42 1013.81 1013.48 1012.93 1012.09 1011.20 1010.57 1010.11 1009.77 1009.73 1009.29 1009.54 1008.48 1008.68 1009.58 1009.68 1011.38
1017.80 1018.28 1018.42 1018.30 1018.50 1018.86 1018.28 1017.50 1015.48 1015.66 1015.58 1015.71 1016.12 1016.99 1017.92 1018.86 1019.26 1019.49 1019.44 1019.33 1019.28 1019.24 1019.16 1018.91 1018.58 1018.29 1018.08 1017.77 1017.32 1017.04 1016.27 1015.43 1014.60 1013.63 1012.99 1012.25 1011.40 1010.61 1010.14 1009.81 1009.37 1009.44 1009.24 1009.02 1008.94 1008.52 1009.39 1009.61 1010.46
1018.02 1018.66 1019.00 1019.58 1019.56 1019.41 1019.25 1017.53 1016.37 1015.75 1015.69 1015.86 1016.35 1017.22 1018.27 1018.89 1019.32 1019.46 1019.33 1019.32 1019.46 1019.38 1019.07 1018.79 1018.43 1018.09 1017.72 1017.41 1017.05 1016.40 1015.81 1015.15 1014.35 1013.39 1012.53 1011.56 1011.03 1010.49 1009.70 1009.50 1009.24 1009.35 1009.23 1008.94 1009.23 1008.88 1008.24 1008.41 1010.16
1018.67 1018.95 1019.66 1020.36 1021.17 1021.75 1020.87 1019.90 1017.24 1016.28 1016.06 1016.38 1017.06 1017.73 1018.58 1019.28 1019.65 1019.72 1019.61 1019.59 1019.50 1019.33 1019.16 1018.78 1018.41 1017.98 1017.46 1017.16 1016.80 1016.44 1015.79 1014.98 1014.22 1013.67 1012.86 1011.90 1011.04 1010.89 1010.12 1009.81 1010.01 1009.78 1009.16 1009.45 1010.11 1009.10 1008.16 1007.85 1009.50
1018.96 1019.66 1020.39 1021.19 1022.36 1023.04 1022.43 1022.39 1017.26 1017.12 1016.75 1016.57 1017.05 1018.17 1019.03 1019.45 1019.60 1019.67 1019.81 1019.80 1019.53 1019.36 1019.15 1018.85 1018.29 1017.69 1017.30 1016.95 1016.61 1016.16 1015.54 1014.76 1014.05 1013.59 1013.00 1011.82 1011.43 1011.46 1010.59 1009.96 1010.21 1009.89 1008.94 1009.58 1010.90 1010.23 1009.36 1008.33 1008.75
1019.25 1020.22 1021.20 1022.13 1023.22 1023.98 1022.75 1022.48 1018.52 1017.82 1017.26 1017.24 1017.89 1018.54 1019.00 1019.40 1019.56 1019.76 1019.88 1019.90 1019.84 1019.55 1019.27 1018.84 1018.25 1017.63 1017.06 1016.68 1016.40 1015.93 1015.13 1014.56 1013.97 1013.48 1012.81 1012.05 1012.03 1011.94 1011.26 1010.38 1010.47 1010.48 1010.51 1010.08 1010.26 1010.06 1009.78 1009.36 1009.07
1019.80 1021.14 1022.33 1023.70 1024.45 1023.84 1022.85 1022.71 1018.42 1017.26 1017.39 1017.82 1018.55 1019.02 1019.28 1019.47 1019.55 1019.89 1020.15 1020.18 1020.01 1019.66 1019.26 1018.70 1018.10 1017.52 1016.94 1016.58 1016.18 1015.63 1014.92 1014.53 1013.96 1013.32 1012.88 1012.63 1012.30 1011.58 1011.11 1010.51 1011.10 1011.00 1011.16 1010.71 1011.05 1010.57 1010.50 1009.95 1010.16
1020.18 1021.22 1022.47 1023.86 1024.93 1024.37 1023.23 1021.52 1017.70 1017.19 1017.66 1018.32 1019.29 1019.34 1019.39 1019.65 1019.93 1020.19 1020.38 1020.42 1020.22 1019.77 1019.28 1018.72 1018.12 1017.48 1016.98 1016.44 1015.91 1015.39 1014.89 1014.48 1013.90 1013.26 1013.12 1013.08 1012.71 1011.64 1011.16 1011.58 1011.39 1011.03 1010.78 1010.72 1009.96 1010.85 1010.26 1010.95 1011.40
1020.80 1021.49 1022.32 1023.76 1025.25 1025.34 1022.59 1020.00 1017.23 1017.63 1018.23 1018.84 1019.27 1019.42 1019.65 1019.80 1020.05 1020.41 1020.67 1020.57 1020.29 1019.93 1019.31 1018.72 1018.07 1017.56 1016.98 1016.29 1015.66 1015.13 1014.74 1014.34 1013.73 1013.34 1013.27 1013.04 1012.42 1011.76 1011.83 1011.83 1012.11 1012.10 1011.80 1012.02 1010.40 1011.73 1011.27 1011.16 1011.67
1021.01 1021.77 1022.89 1024.15 1025.59 1025.47 1022.70 1021.49 1019.74 1018.63 1019.22 1019.39 1019.58 1019.66 1019.91 1020.09 1020.42 1020.58 1020.64 1020.63 1020.40 1019.98 1019.32 1018.67 1018.12 1017.65 1017.06 1016.23 1015.71 1015.19 1014.77 1014.35 1013.96 1013.55 1013.30 1013.39 1013.02 1012.56 1011.96 1011.73 1012.08 1012.15 1012.10 1011.76 1011.72 1011.89 1011.30 1011.51 1012.35
1021.99 1022.46 1023.22 1024.14 1025.20 1025.81 1025.09 1020.62 1018.64 1019.19 1019.82 1019.91 1019.83 1020.00 1020.22 1020.61 1020.83 1020.94 1020.94 1020.79 1020.62 1020.04 1019.48 1018.80 1018.17 1017.67 1017.14 1016.41 1015.86 1015.51 1015.08 1014.62 1014.25 1013.89 1013.79 1013.48 1013.16 1013.14 1012.81 1012.69 1012.56 1012.23 1012.67 1012.43 1011.46 1011.12 1012.10 1013.14 1013.03
1022.18 1022.75 1023.40 1024.58 1025.86 1026.29 1025.85 1021.36 1018.43 1019.42 1020.13 1020.19 1020.11 1020.20 1020.53 1020.97 1021.15 1021.51 1021.32 1021.17 1020.86 1020.39 1019.64 1019.03 1018.34 1017.77 1017.24 1016.61 1016.02 1015.67 1015.33 1015.01 1014.79 1014.62 1014.26 1013.81 1013.46 1013.47 1013.30 1013.40 1013.15 1012.75 1012.20 1011.80 1011.50 1012.15 1012.98 1013.34 1013.63
Wind_Speed
9 8 1 5 5 5 3 4 4 2 2 1 2 8 8 5 2 2 5 7 7 6 6 8 20 21 23 23 22 22 20 22 12 7 6 7 7 7 8 8 9 10 13 16 17 17 16 13 14
5 5 5 3 5 3 5 2 3 1 3 2 5 3 6 3 3 4 4 10 6 6 6 8 18 21 22 22 22 22 21 21 20 15 8 8 9 10 9 9 9 10 13 16 18 18 17 15 14
5 1 4 5 4 5 5 3 5 2 3 2 3 8 4 2 3 3 5 7 7 7 9 12 19 21 22 22 21 21 21 20 20 18 18 11 11 11 10 10 10 11 14 16 18 18 18 15 14
3 5 5 5 5 5 6 5 4 3 4 6 3 6 4 1 2 2 6 8 9 9 10 14 21 21 22 22 22 21 21 20 19 19 17 16 11 12 11 12 11 12 13 17 18 18 18 17 15
5 4 4 0 4 2 2 3 2 3 3 1 2 6 6 2 1 4 7 8 8 6 8 11 20 21 22 22 22 21 22 21 20 18 18 17 15 12 13 13 14 14 13 15 17 18 17 17 15
5 4 4 3 4 3 1 2 2 1 1 1 2 6 4 1 2 4 6 7 6 6 7 10 16 20 21 22 21 21 22 22 21 19 17 16 15 15 13 15 15 16 16 17 17 18 15 16 16
6 4 5 4 4 4 5 2 3 4 2 2 5 5 3 1 0 3 6 6 6 6 8 8 8 12 18 21 20 22 21 21 22 21 20 17 17 16 14 14 15 17 18 18 16 18 16 16 16
5 4 2 4 4 4 3 1 4 3 3 0 3 5 5 3 2 5 6 6 7 7 7 8 9 9 10 10 17 22 21 21 21 21 20 20 17 13 14 12 13 18 18 19 18 17 18 17 15
3 4 3 3 5 2 1 1 2 4 4 1 4 4 5 4 4 5 3 4 4 7 6 6 7 8 9 10 11 16 20 19 18 15 17 15 9 9 10 10 13 15 17 17 17 14 14 16 14
5 4 7 1 1 3 1 1 1 1 3 3 4 2 3 3 3 5 4 5 6 6 5 6 6 6 7 9 10 10 10 8 8 8 8 7 11 10 10 11 13 13 13 16 19 17 13 10 7
3 5 3 2 4 2 2 2 2 3 6 9 7 10 7 4 3 4 3 3 2 3 4 6 7 6 6 6 7 5 6 6 7 8 6 7 7 8 7 6 5 4 7 6 12 14 11 10 7
3 4 4 4 4 4 3 2 4 7 7 4 7 4 7 8 7 6 4 3 3 3 3 6 6 7 6 3 3 6 7 7 7 8 11 7 5 6 8 6 7 5 4 7 7 6 11 12 12
3 3 4 2 3 5 2 7 7 9 8 6 7 6 6 6 6 4 5 4 2 4 4 4 5 6 6 6 5 6 7 7 9 9 9 7 7 6 6 8 7 7 6 7 7 8 9 12 10
1 3 7 7 4 4 3 2 4 4 2 8 8 9 8 8 8 5 5 4 2 4 6 7 8 6 6 7 8 7 6 8 8 8 9 11 8 7 6 7 7 8 8 8 9 10 10 9 10
2 6 7 6 5 3 2 8 12 6 6 8 9 9 8 7 7 6 5 3 2 1 3 6 10 10 10 10 7 8 7 9 7 8 11 13 11 10 8 6 8 7 6 4 8 9 9 10 10
2 1 4 1 6 2 5 10 5 4 8 11 10 9 7 6 4 4 4 4 5 5 6 6 8 10 10 11 8 8 8 8 8 7 9 13 13 13 10 7 7 6 7 3 1 9 10 13 12
1 4 4 6 7 3 5 8 6 7 8 10 9 9 8 6 4 4 3 4 4 4 5 6 7 8 10 10 9 10 12 9 7 6 8 12 14 13 11 7 5 5 5 5 2 2 2 10 12
4 4 5 6 2 4 7 18 16 9 11 14 10 8 8 7 5 4 3 3 4 4 4 4 5 7 9 8 8 8 9 9 7 8 8 13 10 13 12 8 5 5 4 7 6 6 6 4 5
2 3 6 3 2 3 9 13 21 11 12 12 10 9 9 6 4 4 3 2 2 1 4 5 5 5 6 6 7 7 9 10 9 9 12 14 13 14 11 9 6 4 4 6 9 6 9 6 5
3 3 6 6 2 3 6 18 20 4 5 7 9 7 7 5 2 1 3 1 2 3 5 5 5 6 6 5 5 5 7 8 10 11 12 14 15 14 11 9 5 5 4 4 6 10 6 3 10
4 5 3 4 7 2 8 9 5 4 2 1 5 6 6 6 3 5 5 4 3 5 5 5 5 7 6 6 6 6 7 8 8 8 9 9 10 7 3 2 3 2 2 1 5 6 10 6 7
2 2 2 1 5 3 5 9 8 4 7 4 5 6 6 3 3 5 5 3 3 4 5 5 6 7 6 5 5 8 8 9 8 8 10 11 7 5 4 4 4 1 3 3 5 5 1 5 8
4 1 1 3 3 5 1 4 10 3 8 7 8 7 6 4 5 6 4 4 4 4 5 6 7 6 6 5 6 6 9 8 8 8 12 11 5 8 4 6 5 4 4 5 5 4 3 2 4
4 4 4 3 4 4 4 4 10 5 7 1 2 6 4 4 5 4 3 4 5 6 6 6 7 7 6 7 7 8 10 10 8 8 7 4 5 4 5 6 5 4 2 4 4 4 5 3 2
5 5 4 7 6 7 2 1 14 7 6 6 8 6 5 6 4 3 5 5 6 6 6 7 6 9 7 8 8 6 9 8 10 8 4 6 4 4 5 8 6 3 5 2 2 1 2 3 2
3 6 7 6 3 6 3 8 10 5 4 4 4 4 3 5 3 4 5 5 6 9 8 7 8 8 7 8 7 6 5 5 5 6 3 4 3 4 5 4 5 6 6 3 3 2 3 3 0
3 2 3 8 1 3 4 8 10 2 5 4 6 4 6 5 4 4 5 5 6 6 8 8 8 8 8 7 6 6 5 6 4 5 3 4 5 4 3 3 2 2 2 4 6 1 3 5 3
1 3 3 4 1 6 6 7 8 5 5 5 7 6 7 5 5 3 4 5 5 7 7 7 7 6 6 7 5 5 5 5 4 4 4 3 3 3 4 5 4 3 2 3 4 4 6 7 4
1 1 3 4 4 6 4 10 8 7 6 7 8 5 6 4 5 3 4 4 5 6 6 6 6 6 6 6 4 4 4 4 4 4 3 3 4 4 5 5 5 5 3 2 6 10 8 6 6
1 6 4 6 6 1 3 13 3 5 6 5 8 6 3 3 4 3 5 5 6 6 6 6 6 5 5 5 5 4 4 4 4 4 4 4 5 4 5 4 5 6 7 8 10 10 8 9 9
Wind_Direction
329 312 130 44 64 67 253 247 321 99 74 285 107 100 117 56 42 187 203 4 17 46 5 21 26 25 24 19 19 15 8 11 347 268 226 210 207 207 186 177 171 178 178 168 165 159 156 150 147
335 330 43 83 99 112 260 277 135 229 178 116 65 61 51 83 51 90 54 334 23 52 20 19 23 20 20 19 15 12 11 7 5 358 286 243 215 213 208 200 182 189 185 176 172 167 162 156 153
318 90 84 113 125 186 197 196 176 166 11 73 73 56 63 106 66 93 312 331 31 39 24 22 25 20 16 13 11 10 8 9 2 359 357 284 244 220 209 209 199 197 195 190 183 175 170 162 158
27 12 26 103 211 242 199 177 171 120 13 34 116 67 62 221 92 19 334 12 54 33 24 18 24 18 14 8 5 5 3 2 2 360 352 350 279 245 223 211 208 206 203 195 190 184 175 166 165
36 57 72 105 249 197 64 153 212 120 117 208 49 165 132 49 71 41 41 50 63 37 29 29 25 16 8 4 3 1 358 356 354 353 351 349 338 309 248 216 215 208 213 207 196 195 174 167 171
43 94 80 211 241 124 60 297 140 93 200 23 71 116 155 106 40 27 55 57 59 49 35 32 22 14 7 0 357 358 352 350 346 346 342 341 340 323 310 243 219 215 212 217 213 204 178 174 175
111 91 203 211 225 176 187 135 151 170 127 234 161 121 212 124 326 78 69 61 55 34 33 30 21 16 3 354 351 351 347 345 344 341 337 332 328 326 305 299 242 222 215 212 210 212 186 182 177
103 94 225 242 206 215 177 117 176 160 226 141 165 191 226 195 358 46 60 47 47 31 37 32 17 7 359 344 341 344 342 340 339 338 333 329 318 319 297 281 276 237 226 217 212 213 204 190 185
90 62 247 247 168 167 12 122 312 326 126 247 23 104 161 153 92 54 25 18 20 31 36 33 19 7 353 341 341 338 334 334 335 335 331 327 318 308 305 294 268 260 230 222 212 205 210 190 184
98 134 220 163 123 146 115 125 268 263 197 241 91 38 116 77 83 75 45 17 20 17 5 21 11 1 349 339 333 327 323 322 319 319 321 324 315 306 302 288 273 271 256 226 204 201 208 182 188
165 205 208 189 154 148 191 250 245 210 249 218 209 186 176 152 139 114 96 76 94 3 9 0 355 350 343 333 328 323 327 322 316 313 314 312 317 313 306 295 284 259 247 240 219 206 205 196 181
237 248 249 175 159 164 209 171 266 211 230 185 203 153 161 172 168 159 128 105 34 19 7 346 345 337 332 319 322 324 319 317 316 315 311 311 308 307 303 299 290 274 238 231 223 207 200 193 196
207 285 309 339 282 240 173 222 223 241 228 157 158 171 186 183 165 142 144 104 47 0 346 348 340 332 320 341 326 313 310 308 306 308 309 306 296 290 298 297 294 284 249 215 214 199 194 192 197
279 281 274 275 257 235 217 282 145 254 156 177 178 203 202 189 181 164 146 139 61 7 350 349 345 323 328 327 317 307 295 296 294 304 303 306 295 283 285 291 293 296 273 216 207 198 189 179 167
341 317 316 232 202 203 110 294 228 231 169 184 212 220 218 195 173 153 141 124 78 76 358 350 335 337 327 314 313 313 303 306 288 298 301 299 293 287 281 282 285 285 271 280 202 195 168 158 161
323 81 337 16 140 194 120 264 281 199 184 229 216 228 230 203 159 106 85 76 36 8 9 355 339 325 322 316 314 307 305 297 287 294 298 295 291 286 280 272 272 275 278 209 346 194 178 158 155
351 245 215 303 190 140 190 267 254 198 209 229 225 229 223 189 133 120 93 57 58 45 6 335 320 313 317 313 306 312 303 291 279 289 293 294 298 288 279 265 261 274 285 218 219 264 60 176 162
196 234 249 239 224 210 253 262 273 254 222 229 229 230 220 202 162 123 85 44 47 29 348 304 307 309 314 313 308 308 307 299 291 295 292 291 289 290 282 263 261 258 274 264 178 198 127 54 11
141 227 243 249 343 272 249 274 276 275 247 242 229 231 214 165 126 74 33 39 44 353 321 304 299 306 309 312 306 309 306 299 300 294 294 290 284 279 284 260 244 257 228 259 197 177 175 121 130
182 256 262 282 12 343 302 290 287 281 246 247 223 211 158 134 86 320 308 267 244 279 284 286 294 305 298 293 302 278 286 293 296 291 287 279 274 270 265 248 228 233 238 257 235 180 190 104 164
207 206 239 237 331 263 310 294 331 263 246 331 41 106 115 149 196 293 299 284 290 292 296 310 299 292 290 289 302 293 292 290 290 299 302 309 318 326 30 28 110 82 357 357 278 220 186 127 203
282 89 80 19 49 267 47 282 293 274 277 221 195 164 159 146 307 283 293 293 290 298 304 305 287 285 288 306 299 296 287 286 291 298 299 303 297 319 2 49 2 6 98 55 309 325 198 124 180
209 94 189 135 101 44 1 64 270 358 284 254 223 172 175 228 264 280 273 256 294 318 303 298 290 288 286 291 287 283 279 282 290 292 299 286 345 327 5 46 346 9 49 53 285 297 300 118 161
117 76 53 57 89 17 234 131 278 204 211 153 104 172 217 296 276 255 235 284 310 315 314 299 293 301 299 303 290 281 286 289 290 295 300 310 326 289 349 28 13 4 338 47 334 335 323 332 315
78 67 327 351 9 227 248 354 249 264 224 200 191 222 262 271 260 259 289 313 319 309 305 306 321 306 309 301 293 286 292 292 287 294 320 309 286 349 354 21 353 13 319 80 174 355 298 24 301
173 153 159 221 239 272 347 239 255 222 257 246 246 249 269 282 288 283 313 329 317 320 314 311 310 310 306 298 296 290 289 284 287 295 312 280 243 282 23 17 2 339 346 349 29 72 69 69 321
176 198 151 100 68 30 233 284 289 232 291 296 287 264 290 277 286 295 340 321 305 306 309 312 314 316 307 298 301 304 308 307 306 321 319 307 329 13 13 25 15 20 5 261 80 160 96 83 32
124 154 67 10 28 292 288 283 246 303 282 309 295 282 295 290 306 334 317 314 313 313 310 313 316 302 300 311 324 328 321 327 329 334 346 334 13 10 27 23 11 25 17 46 109 130 77 75 48
88 261 59 113 124 175 298 268 218 217 217 246 276 292 274 275 266 283 301 310 310 309 319 312 321 324 324 321 326 338 341 348 356 6 351 359 34 37 46 40 12 18 57 81 86 73 79 99 87
226 196 145 121 256 198 146 272 202 215 232 245 281 293 265 216 253 297 316 323 323 316 321 323 328 331 326 328 344 355 7 12 13 2 10 21 48 40 62 71 68 44 27 44 63 68 69 75 75